Tracking 27124 objects as of 31-Mar-2023
HD Live streaming from Space Station
objects crossing your sky now

SL-8 DEB

Track SL-8 DEB now!
10-day predictions


NORAD ID: 39702
Int'l Code: 1991-009DR
Perigee: 1,473.0 km
Apogee: 1,772.4 km
Inclination: 74.2 °
Period: 118.5 minutes
Semi major axis: 7993 km
RCS: 0.0183 m2 (small)
Launch date: February 12, 1991
Source: Commonwealth of Independent States (former USSR) (CIS)
Launch site: PLESETSK MISSILE AND SPACE COMPLEX (PKMTR)

Note: This is SATELLITE DEBRIS
Your satellite tracking list
Your tracking list is empty




NASA's NSSDC Master Catalog

Two Line Element Set (TLE):
1 39702U 91009DR  23089.57258662 -.00000192  00000-0 -17533-2 0  9998
2 39702  74.2340 177.7059 0187272  87.4827 274.7628 12.14723990314879
Source of the keplerian elements: AFSPC